• In Netherlands
  • List of Countries
  • For 7 days
  • Water Temperature
  • Satellite Maps
  • Weather Map
  • Weather Widgets
  • user-avatar
    Login

    Hourly Weather Gomel

    Today, 18 November, Saturday

    Time Temperature Precipitation Wind Pressure Humidity
    00:00 -1°C° 0 mm 2 mps 754 mmHg 88%
    01:00 -1°C° 0 mm 2 mps 754 mmHg 88%
    02:00 +1°C° 0 mm 1 mps 754 mmHg 90%
    03:00 +1°C° 0 mm 1 mps 754 mmHg 89%
    04:00 +1°C° 0 mm 1 mps 754 mmHg 89%
    05:00 +1°C° 0 mm 1 mps 753 mmHg 88%
    06:00 +1°C° 0 mm 1 mps 753 mmHg 88%
    07:00 +1°C° 0 mm 1 mps 753 mmHg 87%
    08:00 +1°C° 0 mm 1 mps 753 mmHg 87%
    09:00 +2°C° 0 mm 1 mps 753 mmHg 83%
    10:00 +3°C° 0 mm 1 mps 753 mmHg 79%
    11:00 +4°C° 0 mm 1 mps 752 mmHg 75%
    12:00 +4°C° 0 mm 1 mps 752 mmHg 75%
    13:00 +3°C° 0 mm 2 mps 752 mmHg 75%
    14:00 +3°C° 0 mm 2 mps 751 mmHg 74%
    15:00 +3°C° 0.1 mm 2 mps 751 mmHg 78%
    16:00 +2°C° 0.1 mm 2 mps 750 mmHg 82%
    17:00 +2°C° 0.1 mm 2 mps 750 mmHg 86%
    18:00 +2°C° 0.3 mm 2 mps 750 mmHg 87%
    19:00 +2°C° 0.3 mm 2 mps 749 mmHg 89%
    20:00 +2°C° 0.3 mm 2 mps 749 mmHg 90%
    21:00 +2°C° 0.4 mm 2 mps 748 mmHg 91%
    22:00 +1°C° 0.4 mm 2 mps 748 mmHg 92%
    23:00 +1°C° 0.4 mm 2 mps 747 mmHg 94%

    Tomorrow, 19 November, Sunday

    Time Temperature Precipitation Wind Pressure Humidity
    00:00 +1°C° 0.3 mm 2 mps 747 mmHg 95%
    01:00 +1°C° 0.3 mm 2 mps 747 mmHg 95%
    02:00 +1°C° 0.3 mm 2 mps 746 mmHg 96%
    03:00 +1°C° 0.1 mm 2 mps 746 mmHg 97%
    04:00 +1°C° 0.1 mm 2 mps 745 mmHg 97%
    05:00 +1°C° 0.1 mm 2 mps 745 mmHg 98%
    06:00 +1°C° 0.1 mm 2 mps 745 mmHg 97%
    07:00 +1°C° 0.1 mm 2 mps 745 mmHg 97%
    08:00 +1°C° 0.1 mm 2 mps 744 mmHg 97%
    09:00 +2°C° 0 mm 2 mps 744 mmHg 95%
    10:00 +1°C° 0 mm 3 mps 744 mmHg 92%
    11:00 +1°C° 0 mm 3 mps 744 mmHg 90%
    12:00 +2°C° 0 mm 3 mps 744 mmHg 88%
    13:00 +2°C° 0 mm 3 mps 744 mmHg 85%
    14:00 +2°C° 0 mm 3 mps 744 mmHg 82%
    15:00 +1°C° 0 mm 3 mps 744 mmHg 85%
    16:00 +2°C° 0 mm 2 mps 744 mmHg 87%
    17:00 +1°C° 0 mm 2 mps 744 mmHg 90%
    18:00 +1°C° 0 mm 2 mps 744 mmHg 91%
    19:00 +1°C° 0 mm 2 mps 744 mmHg 91%
    20:00 -1°C° 0 mm 2 mps 745 mmHg 92%
    21:00 -1°C° 0 mm 2 mps 745 mmHg 91%
    22:00 -1°C° 0 mm 2 mps 745 mmHg 90%
    23:00 -1°C° 0 mm 2 mps 745 mmHg 89%

    Day after tomorrow, 20 November, Monday

    Time Temperature Precipitation Wind Pressure Humidity
    00:00 -1°C° 0 mm 2 mps 745 mmHg 88%
    01:00 -1°C° 0 mm 2 mps 745 mmHg 87%
    02:00 -1°C° 0 mm 2 mps 745 mmHg 86%
    03:00 -1°C° 0 mm 2 mps 745 mmHg 86%
    04:00 -1°C° 0 mm 3 mps 745 mmHg 86%
    05:00 -1°C° 0 mm 3 mps 745 mmHg 87%
    06:00 -1°C° 0 mm 3 mps 745 mmHg 88%
    07:00 -2°C° 0 mm 3 mps 745 mmHg 89%
    08:00 -2°C° 0 mm 3 mps 745 mmHg 90%
    09:00 -1°C° 0 mm 3 mps 745 mmHg 87%
    10:00 0°C° 0 mm 3 mps 745 mmHg 85%
    11:00 +1°C° 0 mm 3 mps 745 mmHg 82%
    12:00 +2°C° 0 mm 2 mps 745 mmHg 82%
    13:00 +2°C° 0 mm 2 mps 745 mmHg 83%
    14:00 +3°C° 0 mm 2 mps 745 mmHg 83%
    15:00 +2°C° 0 mm 2 mps 744 mmHg 86%
    16:00 +1°C° 0 mm 2 mps 744 mmHg 89%
    17:00 -1°C° 0 mm 2 mps 744 mmHg 92%
    18:00 -1°C° 0 mm 2 mps 744 mmHg 92%
    19:00 -1°C° 0 mm 2 mps 744 mmHg 92%
    20:00 -1°C° 0 mm 2 mps 744 mmHg 92%
    21:00 -1°C° 0 mm 2 mps 744 mmHg 92%
    22:00 -1°C° 0 mm 2 mps 743 mmHg 91%
    23:00 -1°C° 0 mm 2 mps 743 mmHg 91%

    21 November, Tuesday

    Time Temperature Precipitation Wind Pressure Humidity
    00:00 -1°C° 0.1 mm 2 mps 743 mmHg 92%
    01:00 -1°C° 0.1 mm 2 mps 743 mmHg 92%
    02:00 +1°C° 0.1 mm 1 mps 743 mmHg 93%
    03:00 +1°C° 0.2 mm 1 mps 743 mmHg 93%
    04:00 +1°C° 0.2 mm 1 mps 743 mmHg 94%
    05:00 +1°C° 0.2 mm 1 mps 743 mmHg 94%
    06:00 +1°C° 0.1 mm 1 mps 743 mmHg 94%
    07:00 +1°C° 0.1 mm 1 mps 743 mmHg 94%
    08:00 +1°C° 0.1 mm 1 mps 744 mmHg 94%
    09:00 +1°C° 0 mm 1 mps 744 mmHg 91%
    10:00 +1°C° 0 mm 2 mps 744 mmHg 88%
    11:00 +2°C° 0 mm 2 mps 744 mmHg 85%
    12:00 +2°C° 0 mm 2 mps 744 mmHg 84%
    13:00 +2°C° 0 mm 2 mps 744 mmHg 82%
    14:00 +2°C° 0 mm 2 mps 745 mmHg 81%
    15:00 +2°C° 0 mm 2 mps 745 mmHg 83%
    16:00 +1°C° 0 mm 2 mps 745 mmHg 86%
    17:00 -1°C° 0 mm 2 mps 745 mmHg 88%
    18:00 -1°C° 0 mm 2 mps 746 mmHg 88%
    19:00 -1°C° 0 mm 2 mps 746 mmHg 89%
    20:00 -1°C° 0 mm 2 mps 746 mmHg 90%
    21:00 -2°C° 0 mm 2 mps 747 mmHg 90%
    22:00 -2°C° 0 mm 2 mps 747 mmHg 90%
    23:00 -2°C° 0 mm 2 mps 747 mmHg 91%

    22 November, Wednesday

    Time Temperature Precipitation Wind Pressure Humidity
    00:00 -2°C° 0 mm 2 mps 748 mmHg 91%
    01:00 -2°C° 0 mm 2 mps 748 mmHg 92%
    02:00 -3°C° 0 mm 2 mps 749 mmHg 92%
    03:00 -3°C° 0 mm 2 mps 749 mmHg 92%
    04:00 -3°C° 0 mm 2 mps 749 mmHg 93%
    05:00 -3°C° 0 mm 2 mps 749 mmHg 93%
    06:00 -4°C° 0 mm 2 mps 750 mmHg 93%
    07:00 -4°C° 0 mm 2 mps 750 mmHg 93%
    08:00 -4°C° 0 mm 2 mps 751 mmHg 92%
    09:00 -3°C° 0 mm 2 mps 751 mmHg 89%
    10:00 -2°C° 0 mm 2 mps 751 mmHg 85%
    11:00 -1°C° 0 mm 2 mps 752 mmHg 81%
    12:00 +1°C° 0 mm 2 mps 752 mmHg 80%
    13:00 +1°C° 0 mm 2 mps 752 mmHg 79%
    14:00 +1°C° 0 mm 2 mps 752 mmHg 78%
    15:00 -1°C° 0 mm 2 mps 753 mmHg 82%
    16:00 -2°C° 0 mm 2 mps 753 mmHg 86%
    17:00 0°C° 0 mm 1 mps 753 mmHg 89%
    18:00 -1°C° 0 mm 1 mps 754 mmHg 90%
    19:00 -1°C° 0 mm 1 mps 754 mmHg 90%
    20:00 -1°C° 0 mm 1 mps 754 mmHg 91%
    21:00 -1°C° 0 mm 1 mps 755 mmHg 91%
    22:00 -1°C° 0 mm 1 mps 755 mmHg 91%
    23:00 -1°C° 0 mm 1 mps 755 mmHg 92%

    23 November, Thursday

    Time Temperature Precipitation Wind Pressure Humidity
    00:00 -1°C° 0 mm 1 mps 755 mmHg 92%
    01:00 -3°C° 0 mm 2 mps 756 mmHg 92%
    02:00 -3°C° 0 mm 2 mps 756 mmHg 92%
    03:00 -3°C° 0 mm 2 mps 756 mmHg 92%
    04:00 -3°C° 0 mm 2 mps 756 mmHg 91%
    05:00 -3°C° 0 mm 2 mps 756 mmHg 91%
    06:00 -4°C° 0 mm 3 mps 756 mmHg 90%
    07:00 -4°C° 0 mm 3 mps 756 mmHg 90%
    08:00 -4°C° 0 mm 3 mps 756 mmHg 89%
    09:00 -3°C° 0 mm 4 mps 756 mmHg 84%
    10:00 -2°C° 0 mm 4 mps 756 mmHg 79%
    11:00 -1°C° 0 mm 5 mps 756 mmHg 74%
    12:00 -1°C° 0 mm 5 mps 756 mmHg 73%
    13:00 -1°C° 0 mm 5 mps 756 mmHg 72%
    14:00 0°C° 0 mm 4 mps 755 mmHg 70%
    15:00 -1°C° 0 mm 4 mps 755 mmHg 72%
    16:00 -1°C° 0 mm 4 mps 755 mmHg 75%
    17:00 -1°C° 0 mm 4 mps 755 mmHg 77%
    18:00 -2°C° 0 mm 4 mps 755 mmHg 79%
    19:00 -2°C° 0 mm 4 mps 755 mmHg 81%
    20:00 -2°C° 0 mm 4 mps 755 mmHg 83%
    21:00 -1°C° 0 mm 3 mps 755 mmHg 84%
    22:00 -1°C° 0 mm 3 mps 755 mmHg 85%
    23:00 -1°C° 0 mm 3 mps 755 mmHg 86%
    Show more